KD8UYA Weather Reports


Display with metric or nautical units.
time (UTC)temp
F
wind
direction
speed
MPH
gust
MPH
rain 1hr
in
rain 24hr
in
rain mn
in
humidity
%
barometer
mb
20260906024557 62 78 0.0 0.0 0.00 0.10 0.10 86 1012.8
20260906023103 62 78 0.0 0.0 0.00 0.10 0.10 85 1012.6
20260906021609 62 78 0.0 0.0 0.00 0.10 0.10 86 1012.5
20260906020058 62 78 0.0 0.0 0.00 0.10 0.10 87 1012.4
20260906014551 62 78 0.0 0.0 0.00 0.10 0.10 86 1012.4
20260906013049 63 78 0.0 0.0 0.00 0.10 0.10 85 1012.3
20260906011545 65 78 0.0 0.0 0.00 0.10 0.10 84 1012.4
20260906010042 66 78 0.0 0.0 0.00 0.10 0.10 82 1012.2
20260906004542 66 78 0.0 0.0 0.00 0.10 0.10 77 1012.0
20260906003038 67 78 0.0 0.0 0.00 0.10 0.10 77 1012.1
20260906001536 68 77 0.0 0.0 0.00 0.10 0.10 76 1012.0
20260906000036 68 77 0.0 0.0 0.00 0.10 0.10 77 1011.9
20260905234535 69 77 0.0 2.0 0.00 0.10 0.10 76 1011.5
20260905233035 70 24 0.0 5.0 0.00 0.10 0.10 76 1011.6
20260905231534 71 38 0.0 5.0 0.00 0.10 0.10 76 1011.4
20260905230034 72 44 2.0 6.0 0.00 0.10 0.10 75 1011.2
20260905224533 73 40 2.0 6.0 0.00 0.10 0.10 76 1011.0
20260905223034 73 40 2.0 9.0 0.00 0.10 0.10 78 1011.0
20260905221530 73 105 0.0 8.0 0.00 0.10 0.10 78 1010.9
20260905220030 74 47 3.0 7.0 0.00 0.10 0.10 77 1010.8
20260905214529 74 321 0.0 4.0 0.00 0.10 0.10 80 1010.6
20260905213027 74 350 0.0 4.0 0.00 0.10 0.10 80 1010.5
20260905211527 74 40 1.0 4.0 0.00 0.10 0.10 82 1010.5
20260905210031 74 245 1.0 8.0 0.00 0.10 0.10 82 1010.5
20260905204524 74 46 3.0 11.0 0.00 0.10 0.10 81 1010.5
20260905203024 75 33 3.0 7.0 0.00 0.10 0.10 82 1010.7
20260905201531 75 334 0.0 4.0 0.00 0.10 0.10 84 1010.8
20260905200030 76 57 1.0 5.0 0.00 0.10 0.10 83 1010.7
20260905194521 76 51 1.0 5.0 0.00 0.10 0.10 84 1010.7
20260905193027 75 30 3.0 6.0 0.00 0.10 0.10 87 1010.7
20260905191517 75 94 2.0 6.0 0.00 0.10 0.10 88 1010.7
20260905190015 74 55 0.0 3.0 0.00 0.10 0.10 90 1010.8
20260905184520 74 108 0.0 4.0 0.00 0.10 0.10 90 1010.9
20260905183113 74 94 0.0 7.0 0.00 0.10 0.10 90 1011.0
20260905181513 74 31 0.0 4.0 0.00 0.10 0.10 91 1011.1
20260905180008 74 36 0.0 4.0 0.00 0.11 0.10 93 1011.2
20260905174518 73 107 1.0 4.0 0.00 0.11 0.10 93 1011.3
20260905173007 73 111 1.0 3.0 0.00 0.11 0.10 94 1011.2
20260905171507 73 97 0.0 4.0 0.01 0.11 0.10 95 1011.5
20260905170005 73 51 0.0 3.0 0.02 0.11 0.10 96 1011.4
20260905164504 72 39 1.0 6.0 0.10 0.11 0.10 96 1011.5
20260905163007 72 95 3.0 6.0 0.10 0.11 0.10 95 1011.7
20260905161502 72 73 0.0 3.0 0.09 0.10 0.09 95 1011.7
20260905160002 72 69 0.0 3.0 0.07 0.08 0.07 93 1011.8
20260905154558 73 118 0.0 3.0 0.00 0.01 0.00 91 1011.8
20260905153054 73 132 0.0 6.0 0.00 0.01 0.00 91 1011.5
20260905151550 73 108 0.0 7.0 0.00 0.01 0.00 91 1011.5
20260905150045 73 126 0.0 4.0 0.00 0.01 0.00 92 1011.3
20260905144549 73 105 1.0 4.0 0.00 0.05 0.00 92 1011.2
20260905143040 72 106 0.0 4.0 0.00 0.05 0.00 95 1011.2
20260905141601 71 111 2.0 4.0 0.00 0.05 0.00 96 1011.1
20260905140034 71 155 0.0 0.0 0.00 0.05 0.00 97 1011.1
20260905134532 70 122 0.0 4.0 0.00 0.08 0.00 98 1011.3
20260905133048 70 92 0.0 0.0 0.00 0.08 0.00 98 1011.3
20260905131548 70 92 1.0 4.0 0.00 0.08 0.00 99 1011.3
20260905130030 70 103 2.0 5.0 0.00 0.08 0.00 99 1011.1
20260905124529 70 72 0.0 2.0 0.00 0.08 0.00 99 1011.3
20260905123029 69 72 0.0 0.0 0.00 0.08 0.00 99 1011.4
20260905121526 69 72 0.0 3.0 0.00 0.08 0.00 99 1011.2
20260905120026 69 48 0.0 0.0 0.00 0.08 0.00 99 1010.9
20260905114533 69 48 0.0 0.0 0.00 0.08 0.00 99 1010.9
20260905113025 69 48 0.0 0.0 0.00 0.08 0.00 99 1010.7
20260905111524 69 190 0.0 0.0 0.00 0.08 0.00 99 1010.9
20260905110024 69 190 0.0 0.0 0.00 0.08 0.00 99 1011.1
20260905104523 69 190 0.0 0.0 0.00 0.08 0.00 99 1011.2
20260905103031 69 190 0.0 0.0 0.00 0.08 0.00 98 1011.8
20260905101522 69 188 0.0 0.0 0.00 0.08 0.00 99 1011.9
20260905100021 69 188 0.0 0.0 0.00 0.08 0.00 99 1011.9
20260905094520 69 188 0.0 0.0 0.00 0.08 0.00 99 1011.5
20260905093020 68 188 0.0 0.0 0.00 0.08 0.00 99 1011.0
20260905091519 68 188 0.0 0.0 0.00 0.08 0.00 99 1010.5
20260905090018 68 188 0.0 0.0 0.00 0.08 0.00 98 1010.5
20260905084519 68 188 0.0 0.0 0.00 0.08 0.00 98 1010.7
20260905083017 68 188 0.0 0.0 0.00 0.08 0.00 99 1010.5
20260905081516 67 188 0.0 0.0 0.00 0.08 0.00 98 1009.9
20260905080020 67 188 0.0 0.0 0.00 0.09 0.00 98 1010.2
20260905074517 67 188 0.0 0.0 0.00 0.09 0.00 98 1010.4
20260905073013 67 188 0.0 0.0 0.00 0.09 0.00 98 1010.3
20260905071511 68 188 0.0 0.0 0.00 0.09 0.00 98 1010.4
20260905070009 68 188 0.0 0.0 0.00 0.09 0.00 98 1010.4
20260905064508 68 188 0.0 0.0 0.00 0.09 0.00 98 1010.5
20260905063006 69 188 0.0 0.0 0.00 0.09 0.00 98 1010.8
20260905061619 69 188 0.0 0.0 0.00 0.09 0.00 98 1010.7
20260905060002 69 188 0.0 0.0 0.00 0.09 0.00 98 1011.2
20260905054501 69 188 0.0 0.0 0.00 0.09 0.00 98 1011.5
20260905053059 69 188 0.0 0.0 0.00 0.09 0.00 97 1011.6
20260905051610 69 188 0.0 0.0 0.00 0.09 0.00 98 1011.8
20260905050106 69 188 0.0 0.0 0.00 0.09 0.00 97 1011.7
20260905044601 69 188 0.0 0.0 0.00 0.09 0.00 97 1011.9
20260905043056 69 188 0.0 0.0 0.00 0.09 0.00 98 1011.8
20260905041555 68 188 0.0 0.0 0.00 0.09 0.00 97 1011.9
20260905040056 68 188 0.0 0.0 0.00 0.09 0.00 97 1011.8
20260905034607 69 188 0.0 0.0 0.00 0.11 0.09 97 1011.9
20260905033104 68 188 0.0 0.0 0.00 0.11 0.09 97 1011.7
20260905031603 69 188 0.0 0.0 0.00 0.11 0.09 97 1011.8